| time (UTC) | temp F | wind direction | speed MPH | gust MPH | rain 1hr in | rain 24hr in | rain mn in | humidity % | barometer mb |
| 20260502235232 | 77 | 26 | 2.0 | 4.0 | 0.00 | 0.00 | 0.00 | 19 | 1013.0 |
| 20260502234732 | 77 | 74 | 3.0 | 4.0 | 0.00 | 0.00 | 0.00 | 18 | 1013.0 |
| 20260502234231 | 78 | 19 | 6.0 | 8.0 | 0.00 | 0.00 | 0.00 | 18 | 1013.0 |
| 20260502233731 | 78 | 98 | 4.0 | 6.0 | 0.00 | 0.00 | 0.00 | 18 | 1013.0 |
| 20260502233232 | 78 | 270 | 2.0 | 3.0 | 0.00 | 0.00 | 0.00 | 19 | 1013.0 |
| 20260502232731 | 77 | 254 | 2.0 | 4.0 | 0.00 | 0.00 | 0.00 | 20 | 1013.0 |
| 20260502232232 | 77 | 112 | 6.0 | 8.0 | 0.00 | 0.00 | 0.00 | 18 | 1013.0 |
| 20260502231731 | 77 | 327 | 3.0 | 8.0 | 0.00 | 0.00 | 0.00 | 18 | 1013.0 |
| 20260502231231 | 78 | 48 | 2.0 | 6.0 | 0.00 | 0.00 | 0.00 | 19 | 1013.0 |
| 20260502230731 | 77 | 54 | 1.0 | 2.0 | 0.00 | 0.00 | 0.00 | 17 | 1013.0 |
| 20260502230231 | 77 | 128 | 2.0 | 7.0 | 0.00 | 0.00 | 0.00 | 18 | 1013.0 |
| 20260502225731 | 76 | 65 | 2.0 | 4.0 | 0.00 | 0.00 | 0.00 | 21 | 1013.0 |
| 20260502225231 | 76 | 77 | 6.0 | 9.0 | 0.00 | 0.00 | 0.00 | 17 | 1013.0 |
| 20260502224731 | 76 | 104 | 1.0 | 4.0 | 0.00 | 0.00 | 0.00 | 20 | 1013.0 |
| 20260502224231 | 76 | 81 | 4.0 | 7.0 | 0.00 | 0.00 | 0.00 | 18 | 1013.0 |
| 20260502223732 | 76 | 105 | 6.0 | 7.0 | 0.00 | 0.00 | 0.00 | 18 | 1013.0 |
| 20260502223231 | 77 | 174 | 2.0 | 4.0 | 0.00 | 0.00 | 0.00 | 20 | 1013.0 |
| 20260502222731 | 77 | 108 | 6.0 | 9.0 | 0.00 | 0.00 | 0.00 | 20 | 1013.0 |
| 20260502222232 | 77 | 81 | 6.0 | 9.0 | 0.00 | 0.00 | 0.00 | 19 | 1013.0 |
| 20260502221731 | 76 | 165 | 2.0 | 7.0 | 0.00 | 0.00 | 0.00 | 20 | 1014.0 |
| 20260502221232 | 76 | 99 | 7.0 | 10.0 | 0.00 | 0.00 | 0.00 | 20 | 1014.0 |
| 20260502220731 | 76 | 115 | 6.0 | 13.0 | 0.00 | 0.00 | 0.00 | 21 | 1014.0 |
| 20260502220231 | 77 | 117 | 5.0 | 9.0 | 0.00 | 0.00 | 0.00 | 20 | 1014.0 |
| 20260502215731 | 77 | 150 | 5.0 | 10.0 | 0.00 | 0.00 | 0.00 | 21 | 1014.0 |
| 20260502215231 | 77 | 155 | 4.0 | 8.0 | 0.00 | 0.00 | 0.00 | 22 | 1014.0 |
| 20260502214731 | 76 | 178 | 2.0 | 4.0 | 0.00 | 0.00 | 0.00 | 22 | 1014.0 |
| 20260502214231 | 76 | 203 | 4.0 | 4.0 | 0.00 | 0.00 | 0.00 | 21 | 1014.0 |
| 20260502213732 | 76 | 314 | 7.0 | 9.0 | 0.00 | 0.00 | 0.00 | 22 | 1014.0 |
| 20260502213232 | 77 | 314 | 4.0 | 6.0 | 0.00 | 0.00 | 0.00 | 22 | 1014.0 |
| 20260502212731 | 76 | 315 | 3.0 | 3.0 | 0.00 | 0.00 | 0.00 | 24 | 1014.0 |
| 20260502212231 | 76 | 313 | 5.0 | 6.0 | 0.00 | 0.00 | 0.00 | 23 | 1014.0 |
| 20260502211732 | 76 | 315 | 3.0 | 6.0 | 0.00 | 0.00 | 0.00 | 24 | 1014.0 |
| 20260502211233 | 75 | 315 | 3.0 | 5.0 | 0.00 | 0.00 | 0.00 | 22 | 1014.0 |
| 20260502210733 | 75 | 315 | 3.0 | 4.0 | 0.00 | 0.00 | 0.00 | 25 | 1015.0 |
| 20260502210232 | 75 | 314 | 3.0 | 4.0 | 0.00 | 0.00 | 0.00 | 24 | 1015.0 |
| 20260502205732 | 75 | 314 | 3.0 | 3.0 | 0.00 | 0.00 | 0.00 | 23 | 1015.0 |
| 20260502205232 | 75 | 314 | 3.0 | 4.0 | 0.00 | 0.00 | 0.00 | 22 | 1015.0 |
| 20260502204731 | 75 | 314 | 2.0 | 3.0 | 0.00 | 0.00 | 0.00 | 24 | 1015.0 |
| 20260502204231 | 76 | 314 | 6.0 | 9.0 | 0.00 | 0.00 | 0.00 | 21 | 1015.0 |
| 20260502203731 | 76 | 314 | 3.0 | 5.0 | 0.00 | 0.00 | 0.00 | 23 | 1015.0 |
| 20260502203231 | 75 | 314 | 4.0 | 8.0 | 0.00 | 0.00 | 0.00 | 26 | 1015.0 |
| 20260502202732 | 75 | 315 | 4.0 | 8.0 | 0.00 | 0.00 | 0.00 | 23 | 1015.0 |
| 20260502202232 | 75 | 315 | 5.0 | 6.0 | 0.00 | 0.00 | 0.00 | 22 | 1015.0 |
| 20260502201731 | 75 | 314 | 3.0 | 4.0 | 0.00 | 0.00 | 0.00 | 22 | 1015.0 |
| 20260502201232 | 75 | 315 | 4.0 | 5.0 | 0.00 | 0.00 | 0.00 | 22 | 1015.0 |
| 20260502200731 | 75 | 315 | 3.0 | 4.0 | 0.00 | 0.00 | 0.00 | 23 | 1015.0 |
| 20260502200232 | 75 | 315 | 4.0 | 6.0 | 0.00 | 0.00 | 0.00 | 22 | 1015.0 |
| 20260502195731 | 74 | 314 | 5.0 | 7.0 | 0.00 | 0.00 | 0.00 | 24 | 1015.0 |
| 20260502195232 | 74 | 314 | 6.0 | 7.0 | 0.00 | 0.00 | 0.00 | 24 | 1015.0 |
| 20260502194731 | 74 | 315 | 4.0 | 6.0 | 0.00 | 0.00 | 0.00 | 25 | 1015.0 |
| 20260502194231 | 74 | 312 | 3.0 | 5.0 | 0.00 | 0.00 | 0.00 | 24 | 1015.0 |
| 20260502193731 | 74 | 313 | 6.0 | 8.0 | 0.00 | 0.00 | 0.00 | 24 | 1015.0 |
| 20260502193231 | 74 | 315 | 3.0 | 6.0 | 0.00 | 0.00 | 0.00 | 25 | 1015.0 |
| 20260502192731 | 74 | 315 | 5.0 | 7.0 | 0.00 | 0.00 | 0.00 | 23 | 1016.0 |
| 20260502192232 | 73 | 314 | 5.0 | 7.0 | 0.00 | 0.00 | 0.00 | 24 | 1016.0 |
| 20260502191733 | 73 | 314 | 4.0 | 7.0 | 0.00 | 0.00 | 0.00 | 24 | 1016.0 |
| 20260502191231 | 73 | 315 | 2.0 | 2.0 | 0.00 | 0.00 | 0.00 | 34 | 1016.0 |
| 20260502190731 | 72 | 314 | 2.0 | 3.0 | 0.00 | 0.00 | 0.00 | 34 | 1016.0 |
| 20260502190232 | 71 | 312 | 2.0 | 4.0 | 0.00 | 0.00 | 0.00 | 35 | 1016.0 |
| 20260502185731 | 71 | 315 | 2.0 | 3.0 | 0.00 | 0.00 | 0.00 | 35 | 1016.0 |
| 20260502185231 | 70 | 314 | 3.0 | 3.0 | 0.00 | 0.00 | 0.00 | 35 | 1016.0 |
| 20260502184732 | 70 | 314 | 3.0 | 3.0 | 0.00 | 0.00 | 0.00 | 36 | 1016.0 |
| 20260502184232 | 71 | 314 | 3.0 | 4.0 | 0.00 | 0.00 | 0.00 | 35 | 1016.0 |
| 20260502183732 | 71 | 314 | 2.0 | 3.0 | 0.00 | 0.00 | 0.00 | 34 | 1016.0 |
| 20260502183232 | 69 | 311 | 2.0 | 3.0 | 0.00 | 0.00 | 0.00 | 37 | 1017.0 |
| 20260502182731 | 68 | 298 | 2.0 | 3.0 | 0.00 | 0.00 | 0.00 | 40 | 1017.0 |
| 20260502182232 | 68 | 309 | 3.0 | 6.0 | 0.00 | 0.00 | 0.00 | 37 | 1017.0 |
| 20260502181733 | 67 | 316 | 2.0 | 3.0 | 0.00 | 0.00 | 0.00 | 38 | 1017.0 |
| 20260502181232 | 67 | 281 | 3.0 | 4.0 | 0.00 | 0.00 | 0.00 | 39 | 1017.0 |
| 20260502180731 | 67 | 313 | 4.0 | 6.0 | 0.00 | 0.00 | 0.00 | 41 | 1017.0 |
| 20260502180232 | 66 | 305 | 4.0 | 5.0 | 0.00 | 0.00 | 0.00 | 42 | 1017.0 |
| 20260502170232 | 64 | 298 | 3.0 | 5.0 | 0.00 | 0.00 | 0.00 | 44 | 1017.0 |
| 20260502164231 | 62 | 359 | 2.0 | 3.0 | 0.00 | 0.00 | 0.00 | 46 | 1017.0 |
| 20260502163731 | 61 | 349 | 3.0 | 4.0 | 0.00 | 0.00 | 0.00 | 46 | 1017.0 |
| 20260502163232 | 62 | 306 | 4.0 | 5.0 | 0.00 | 0.00 | 0.00 | 46 | 1017.0 |
| 20260502162732 | 61 | 14 | 2.0 | 3.0 | 0.00 | 0.00 | 0.00 | 45 | 1017.0 |
| 20260502162231 | 60 | 340 | 3.0 | 6.0 | 0.00 | 0.00 | 0.00 | 48 | 1017.0 |
| 20260502161731 | 59 | 357 | 4.0 | 5.0 | 0.00 | 0.00 | 0.00 | 49 | 1017.0 |
| 20260502161231 | 59 | 296 | 5.0 | 7.0 | 0.00 | 0.00 | 0.00 | 51 | 1017.0 |
| 20260502160732 | 58 | 305 | 7.0 | 9.0 | 0.00 | 0.00 | 0.00 | 51 | 1017.0 |
| 20260502160232 | 58 | 303 | 6.0 | 8.0 | 0.00 | 0.00 | 0.00 | 51 | 1017.0 |
| 20260502152231 | 55 | 325 | 2.0 | 3.0 | 0.00 | 0.00 | 0.00 | 57 | 1017.0 |
| 20260502151731 | 55 | 326 | 2.0 | 3.0 | 0.00 | 0.00 | 0.00 | 57 | 1017.0 |
| 20260502151231 | 55 | 12 | 4.0 | 5.0 | 0.00 | 0.00 | 0.00 | 55 | 1017.0 |
| 20260502150731 | 55 | 356 | 4.0 | 5.0 | 0.00 | 0.00 | 0.00 | 54 | 1017.0 |
| 20260502150231 | 55 | 43 | 3.0 | 5.0 | 0.00 | 0.00 | 0.00 | 55 | 1017.0 |
| 20260502130731 | 53 | 113 | 9.0 | 13.0 | 0.00 | 0.00 | 0.00 | 51 | 1016.0 |
| 20260502130231 | 54 | 88 | 7.0 | 9.0 | 0.00 | 0.00 | 0.00 | 49 | 1016.0 |
| 20260502123731 | 53 | 90 | 7.0 | 9.0 | 0.00 | 0.00 | 0.00 | 46 | 1016.0 |
| 20260502123232 | 53 | 108 | 6.0 | 9.0 | 0.00 | 0.00 | 0.00 | 49 | 1016.0 |
| 20260502122731 | 53 | 115 | 7.0 | 10.0 | 0.00 | 0.00 | 0.00 | 51 | 1016.0 |
| 20260502122232 | 53 | 104 | 7.0 | 9.0 | 0.00 | 0.00 | 0.00 | 50 | 1016.0 |
| 20260502121731 | 53 | 108 | 7.0 | 9.0 | 0.00 | 0.00 | 0.00 | 51 | 1016.0 |
| 20260502121232 | 54 | 112 | 7.0 | 9.0 | 0.00 | 0.00 | 0.00 | 49 | 1016.0 |
| 20260502120732 | 54 | 110 | 8.0 | 11.0 | 0.00 | 0.00 | 0.00 | 49 | 1016.0 |
| 20260502120232 | 54 | 100 | 6.0 | 8.0 | 0.00 | 0.00 | 0.00 | 48 | 1016.0 |
| 20260502115732 | 54 | 101 | 5.0 | 6.0 | 0.00 | 0.00 | 0.00 | 47 | 1016.0 |
| 20260502115231 | 54 | 101 | 6.0 | 7.0 | 0.00 | 0.00 | 0.00 | 48 | 1016.0 |
| 20260502114732 | 54 | 89 | 6.0 | 8.0 | 0.00 | 0.00 | 0.00 | 48 | 1016.0 |
| 20260502114233 | 54 | 114 | 6.0 | 8.0 | 0.00 | 0.00 | 0.00 | 48 | 1016.0 |
| 20260502113731 | 54 | 115 | 6.0 | 8.0 | 0.00 | 0.00 | 0.00 | 49 | 1016.0 |
| 20260502113231 | 54 | 110 | 8.0 | 11.0 | 0.00 | 0.00 | 0.00 | 49 | 1017.0 |
| 20260502112732 | 53 | 107 | 8.0 | 12.0 | 0.00 | 0.00 | 0.00 | 49 | 1016.0 |
| 20260502112231 | 53 | 133 | 7.0 | 11.0 | 0.00 | 0.00 | 0.00 | 51 | 1016.0 |
| 20260502111732 | 54 | 128 | 5.0 | 6.0 | 0.00 | 0.00 | 0.00 | 48 | 1017.0 |
| 20260502111231 | 54 | 123 | 6.0 | 9.0 | 0.00 | 0.00 | 0.00 | 49 | 1017.0 |
| 20260502110731 | 54 | 120 | 6.0 | 10.0 | 0.00 | 0.00 | 0.00 | 48 | 1017.0 |
| 20260502110231 | 54 | 100 | 8.0 | 9.0 | 0.00 | 0.00 | 0.00 | 48 | 1017.0 |
| 20260502105732 | 54 | 118 | 6.0 | 9.0 | 0.00 | 0.00 | 0.00 | 49 | 1017.0 |
| 20260502105232 | 54 | 128 | 8.0 | 10.0 | 0.00 | 0.00 | 0.00 | 49 | 1017.0 |
| 20260502104731 | 54 | 124 | 7.0 | 10.0 | 0.00 | 0.00 | 0.00 | 48 | 1017.0 |
| 20260502104232 | 54 | 96 | 5.0 | 8.0 | 0.00 | 0.00 | 0.00 | 48 | 1017.0 |
| 20260502103731 | 54 | 99 | 5.0 | 7.0 | 0.00 | 0.00 | 0.00 | 49 | 1017.0 |
| 20260502103231 | 54 | 99 | 5.0 | 7.0 | 0.00 | 0.00 | 0.00 | 50 | 1017.0 |
| 20260502102731 | 54 | 113 | 6.0 | 8.0 | 0.00 | 0.00 | 0.00 | 49 | 1017.0 |
| 20260502102231 | 54 | 113 | 4.0 | 7.0 | 0.00 | 0.00 | 0.00 | 50 | 1017.0 |
| 20260502101731 | 54 | 98 | 6.0 | 9.0 | 0.00 | 0.00 | 0.00 | 50 | 1017.0 |
| 20260502101231 | 54 | 88 | 8.0 | 10.0 | 0.00 | 0.00 | 0.00 | 52 | 1017.0 |
| 20260502100732 | 54 | 100 | 6.0 | 8.0 | 0.00 | 0.00 | 0.00 | 50 | 1017.0 |
| 20260502100231 | 54 | 92 | 8.0 | 12.0 | 0.00 | 0.00 | 0.00 | 50 | 1017.0 |
| 20260502091232 | 55 | 105 | 7.0 | 9.0 | 0.00 | 0.00 | 0.00 | 50 | 1017.0 |
| 20260502090732 | 55 | 95 | 6.0 | 12.0 | 0.00 | 0.00 | 0.00 | 49 | 1017.0 |
| 20260502090231 | 55 | 111 | 8.0 | 11.0 | 0.00 | 0.00 | 0.00 | 48 | 1017.0 |
| 20260502071232 | 57 | 122 | 5.0 | 7.0 | 0.00 | 0.00 | 0.00 | 47 | 1017.0 |
| 20260502070731 | 57 | 119 | 6.0 | 8.0 | 0.00 | 0.00 | 0.00 | 46 | 1017.0 |
| 20260502070232 | 57 | 115 | 5.0 | 8.0 | 0.00 | 0.00 | 0.00 | 46 | 1017.0 |
| 20260502065731 | 57 | 117 | 6.0 | 10.0 | 0.00 | 0.00 | 0.00 | 45 | 1017.0 |
| 20260502065232 | 57 | 117 | 7.0 | 10.0 | 0.00 | 0.00 | 0.00 | 46 | 1017.0 |
| 20260502064732 | 58 | 130 | 6.0 | 9.0 | 0.00 | 0.00 | 0.00 | 45 | 1017.0 |
| 20260502064231 | 58 | 111 | 6.0 | 9.0 | 0.00 | 0.00 | 0.00 | 43 | 1017.0 |
| 20260502063732 | 58 | 114 | 5.0 | 7.0 | 0.00 | 0.00 | 0.00 | 44 | 1017.0 |
| 20260502063232 | 58 | 124 | 5.0 | 7.0 | 0.00 | 0.00 | 0.00 | 44 | 1017.0 |
| 20260502062731 | 57 | 107 | 6.0 | 10.0 | 0.00 | 0.00 | 0.00 | 44 | 1017.0 |
| 20260502062231 | 57 | 114 | 6.0 | 9.0 | 0.00 | 0.00 | 0.00 | 46 | 1017.0 |
| 20260502061731 | 57 | 116 | 6.0 | 9.0 | 0.00 | 0.00 | 0.00 | 46 | 1017.0 |
| 20260502061232 | 57 | 109 | 4.0 | 5.0 | 0.00 | 0.00 | 0.00 | 47 | 1017.0 |
| 20260502060731 | 58 | 112 | 6.0 | 9.0 | 0.00 | 0.00 | 0.00 | 45 | 1017.0 |
| 20260502060231 | 58 | 111 | 5.0 | 8.0 | 0.00 | 0.00 | 0.00 | 44 | 1017.0 |
| 20260502055731 | 58 | 101 | 6.0 | 8.0 | 0.00 | 0.00 | 0.00 | 44 | 1017.0 |
| 20260502055231 | 58 | 111 | 6.0 | 8.0 | 0.00 | 0.00 | 0.00 | 44 | 1017.0 |
| 20260502054734 | 58 | 93 | 6.0 | 8.0 | 0.00 | 0.00 | 0.00 | 42 | 1017.0 |
| 20260502054232 | 58 | 101 | 6.0 | 9.0 | 0.00 | 0.00 | 0.00 | 44 | 1017.0 |
| 20260502053732 | 58 | 116 | 5.0 | 7.0 | 0.00 | 0.00 | 0.00 | 43 | 1017.0 |
| 20260502053232 | 58 | 106 | 6.0 | 7.0 | 0.00 | 0.00 | 0.00 | 43 | 1017.0 |
| 20260502052732 | 58 | 111 | 4.0 | 6.0 | 0.00 | 0.00 | 0.00 | 43 | 1017.0 |
| 20260502052232 | 58 | 111 | 5.0 | 9.0 | 0.00 | 0.00 | 0.00 | 44 | 1017.0 |
| 20260502051731 | 58 | 96 | 5.0 | 8.0 | 0.00 | 0.00 | 0.00 | 43 | 1017.0 |
| 20260502051233 | 57 | 95 | 4.0 | 4.0 | 0.00 | 0.00 | 0.00 | 43 | 1017.0 |
| 20260502050732 | 56 | 116 | 4.0 | 7.0 | 0.00 | 0.00 | 0.00 | 48 | 1017.0 |
| 20260502050231 | 57 | 119 | 5.0 | 7.0 | 0.00 | 0.00 | 0.00 | 48 | 1017.0 |
| 20260502045731 | 57 | 120 | 4.0 | 6.0 | 0.00 | 0.00 | 0.00 | 46 | 1017.0 |
| 20260502045231 | 57 | 123 | 4.0 | 5.0 | 0.00 | 0.00 | 0.00 | 47 | 1017.0 |
| 20260502044731 | 57 | 132 | 4.0 | 5.0 | 0.00 | 0.00 | 0.00 | 46 | 1017.0 |
| 20260502044232 | 57 | 127 | 3.0 | 4.0 | 0.00 | 0.00 | 0.00 | 47 | 1017.0 |
| 20260502043731 | 57 | 126 | 5.0 | 7.0 | 0.00 | 0.00 | 0.00 | 47 | 1017.0 |
| 20260502043231 | 58 | 128 | 5.0 | 7.0 | 0.00 | 0.00 | 0.00 | 44 | 1017.0 |
| 20260502042731 | 59 | 127 | 4.0 | 4.0 | 0.00 | 0.00 | 0.00 | 43 | 1017.0 |
| 20260502042232 | 60 | 125 | 5.0 | 6.0 | 0.00 | 0.00 | 0.00 | 42 | 1017.0 |
| 20260502041731 | 60 | 113 | 3.0 | 4.0 | 0.00 | 0.00 | 0.00 | 39 | 1017.0 |
| 20260502041231 | 61 | 112 | 4.0 | 6.0 | 0.00 | 0.00 | 0.00 | 38 | 1017.0 |
| 20260502040731 | 61 | 89 | 3.0 | 4.0 | 0.00 | 0.00 | 0.00 | 37 | 1017.0 |
| 20260502040231 | 62 | 127 | 4.0 | 4.0 | 0.00 | 0.00 | 0.00 | 37 | 1017.0 |
| 20260502035731 | 62 | 108 | 4.0 | 4.0 | 0.00 | 0.00 | 0.00 | 36 | 1017.0 |
| 20260502035232 | 62 | 122 | 4.0 | 5.0 | 0.00 | 0.00 | 0.00 | 35 | 1017.0 |
| 20260502034731 | 62 | 116 | 2.0 | 3.0 | 0.00 | 0.00 | 0.00 | 35 | 1017.0 |
| 20260502034231 | 62 | 106 | 4.0 | 5.0 | 0.00 | 0.00 | 0.00 | 36 | 1017.0 |
| 20260502033731 | 62 | 124 | 4.0 | 6.0 | 0.00 | 0.00 | 0.00 | 36 | 1017.0 |
| 20260502033232 | 62 | 116 | 3.0 | 4.0 | 0.00 | 0.00 | 0.00 | 36 | 1017.0 |
| 20260502032731 | 62 | 117 | 3.0 | 5.0 | 0.00 | 0.00 | 0.00 | 37 | 1017.0 |
| 20260502032232 | 62 | 119 | 2.0 | 4.0 | 0.00 | 0.00 | 0.00 | 37 | 1017.0 |
| 20260502031731 | 63 | 124 | 3.0 | 6.0 | 0.00 | 0.00 | 0.00 | 39 | 1017.0 |
| 20260502031232 | 63 | 135 | 3.0 | 3.0 | 0.00 | 0.00 | 0.00 | 38 | 1017.0 |
| 20260502030734 | 64 | 137 | 2.0 | 3.0 | 0.00 | 0.00 | 0.00 | 37 | 1017.0 |
| 20260502030232 | 65 | 137 | 3.0 | 4.0 | 0.00 | 0.00 | 0.00 | 36 | 1017.0 |
| 20260502025732 | 67 | 136 | 1.0 | 1.0 | 0.00 | 0.00 | 0.00 | 30 | 1016.0 |
| 20260502025231 | 67 | 135 | 1.0 | 1.0 | 0.00 | 0.00 | 0.00 | 28 | 1016.0 |
| 20260502024733 | 68 | 135 | 1.0 | 1.0 | 0.00 | 0.00 | 0.00 | 26 | 1016.0 |
| 20260502024232 | 68 | 135 | 1.0 | 2.0 | 0.00 | 0.00 | 0.00 | 25 | 1016.0 |
| 20260502023731 | 69 | 136 | 1.0 | 2.0 | 0.00 | 0.00 | 0.00 | 24 | 1016.0 |
| 20260502023232 | 69 | 137 | 2.0 | 2.0 | 0.00 | 0.00 | 0.00 | 24 | 1016.0 |
| 20260502022731 | 69 | 136 | 2.0 | 3.0 | 0.00 | 0.00 | 0.00 | 23 | 1016.0 |
| 20260502022231 | 70 | 136 | 2.0 | 2.0 | 0.00 | 0.00 | 0.00 | 22 | 1016.0 |
| 20260502021732 | 70 | 137 | 2.0 | 3.0 | 0.00 | 0.00 | 0.00 | 22 | 1016.0 |
| 20260502021231 | 70 | 137 | 2.0 | 3.0 | 0.00 | 0.00 | 0.00 | 21 | 1016.0 |
| 20260502020732 | 71 | 136 | 2.0 | 2.0 | 0.00 | 0.00 | 0.00 | 20 | 1016.0 |
| 20260502020231 | 71 | 137 | 2.0 | 2.0 | 0.00 | 0.00 | 0.00 | 21 | 1016.0 |
| 20260502015731 | 71 | 137 | 2.0 | 2.0 | 0.00 | 0.00 | 0.00 | 21 | 1016.0 |
| 20260502015232 | 71 | 137 | 2.0 | 2.0 | 0.00 | 0.00 | 0.00 | 22 | 1016.0 |
| 20260502014732 | 71 | 136 | 3.0 | 7.0 | 0.00 | 0.00 | 0.00 | 21 | 1016.0 |
| 20260502014231 | 71 | 136 | 1.0 | 2.0 | 0.00 | 0.00 | 0.00 | 23 | 1016.0 |
| 20260502013731 | 71 | 136 | 2.0 | 3.0 | 0.00 | 0.00 | 0.00 | 22 | 1016.0 |
| 20260502013232 | 71 | 137 | 2.0 | 3.0 | 0.00 | 0.00 | 0.00 | 21 | 1016.0 |
| 20260502012731 | 72 | 136 | 2.0 | 3.0 | 0.00 | 0.00 | 0.00 | 19 | 1016.0 |
| 20260502012231 | 72 | 137 | 2.0 | 3.0 | 0.00 | 0.00 | 0.00 | 20 | 1016.0 |
| 20260502011731 | 72 | 137 | 2.0 | 3.0 | 0.00 | 0.00 | 0.00 | 19 | 1017.0 |
| 20260502011231 | 72 | 137 | 2.0 | 3.0 | 0.00 | 0.00 | 0.00 | 19 | 1017.0 |
| 20260502010734 | 72 | 136 | 2.0 | 3.0 | 0.00 | 0.00 | 0.00 | 20 | 1017.0 |
| 20260502010231 | 72 | 138 | 2.0 | 4.0 | 0.00 | 0.00 | 0.00 | 20 | 1017.0 |
| 20260502005731 | 72 | 137 | 2.0 | 3.0 | 0.00 | 0.00 | 0.00 | 20 | 1017.0 |
| 20260502005231 | 72 | 138 | 2.0 | 3.0 | 0.00 | 0.00 | 0.00 | 21 | 1017.0 |
| 20260502004731 | 72 | 134 | 1.0 | 2.0 | 0.00 | 0.00 | 0.00 | 20 | 1017.0 |
| 20260502004231 | 72 | 135 | 1.0 | 1.0 | 0.00 | 0.00 | 0.00 | 21 | 1017.0 |
| 20260502003732 | 72 | 140 | 2.0 | 3.0 | 0.00 | 0.00 | 0.00 | 22 | 1017.0 |
| 20260502003231 | 72 | 142 | 2.0 | 4.0 | 0.00 | 0.00 | 0.00 | 22 | 1017.0 |
| 20260502002731 | 72 | 177 | 6.0 | 7.0 | 0.00 | 0.00 | 0.00 | 21 | 1017.0 |
| 20260502002231 | 72 | 151 | 4.0 | 6.0 | 0.00 | 0.00 | 0.00 | 22 | 1017.0 |
| 20260502001731 | 72 | 138 | 3.0 | 4.0 | 0.00 | 0.00 | 0.00 | 23 | 1017.0 |
| 20260502001234 | 72 | 136 | 2.0 | 2.0 | 0.00 | 0.00 | 0.00 | 23 | 1017.0 |
| 20260502000732 | 72 | 136 | 1.0 | 1.0 | 0.00 | 0.00 | 0.00 | 24 | 1017.0 |
| 20260502000233 | 72 | 136 | 1.0 | 2.0 | 0.00 | 0.00 | 0.00 | 22 | 1017.0 |
| 20260501235731 | 71 | 138 | 2.0 | 2.0 | 0.00 | 0.00 | 0.00 | 23 | 1017.0 |